When you browse on this site, cookies collect data to enhance your experience and personalize the content and advertising you see.
Visit our Privacy Policy to learn more. By continuing to use the site, you agree to this use of cookies and data.
  • In Hungary
  • List of Countries
  • For 7 days
  • Water Temperature
  • Weather Map
  • News
  • Weather Widgets
  • user-avatar
    Login

    Hourly Weather Chicxulub

    Today, 12 November, Tuesday

    Time Temperature Precipitation Wind Pressure Humidity
    00:00 +25°C° 0 mm 1 mps 758 mmHg 96%
    01:00 +25°C° 0 mm 1 mps 758 mmHg 97%
    02:00 +25°C° 0 mm 1 mps 758 mmHg 97%
    03:00 +22°C° 0 mm 0 mps 758 mmHg 98%
    04:00 +22°C° 0 mm 0 mps 758 mmHg 98%
    05:00 +22°C° 0 mm 0 mps 758 mmHg 97%
    06:00 +22°C° 0 mm 0 mps 758 mmHg 97%
    07:00 +26°C° 0.4 mm 1 mps 759 mmHg 92%
    08:00 +27°C° 0.4 mm 2 mps 759 mmHg 86%
    09:00 +29°C° 0.4 mm 2 mps 760 mmHg 80%
    10:00 +29°C° 0.9 mm 3 mps 759 mmHg 77%
    11:00 +30°C° 0.9 mm 4 mps 759 mmHg 75%
    12:00 +30°C° 0.9 mm 4 mps 759 mmHg 73%
    13:00 +30°C° 1.1 mm 5 mps 758 mmHg 75%
    14:00 +29°C° 1.1 mm 5 mps 758 mmHg 78%
    15:00 +28°C° 1.1 mm 6 mps 758 mmHg 81%
    16:00 +28°C° 0.2 mm 5 mps 758 mmHg 81%
    17:00 +27°C° 0.2 mm 5 mps 759 mmHg 82%
    18:00 +26°C° 0.2 mm 5 mps 759 mmHg 83%
    19:00 +26°C° 0.1 mm 4 mps 760 mmHg 83%
    20:00 +26°C° 0.1 mm 4 mps 760 mmHg 83%
    21:00 +26°C° 0.1 mm 4 mps 761 mmHg 83%
    22:00 +26°C° 0.1 mm 4 mps 761 mmHg 84%
    23:00 +26°C° 0.1 mm 4 mps 760 mmHg 85%

    Tomorrow, 13 November, Wednesday

    Time Temperature Precipitation Wind Pressure Humidity
    00:00 +26°C° 0.1 mm 4 mps 760 mmHg 86%
    01:00 +25°C° 0.1 mm 4 mps 760 mmHg 86%
    02:00 +25°C° 0.1 mm 4 mps 759 mmHg 85%
    03:00 +25°C° 0.1 mm 4 mps 759 mmHg 85%
    04:00 +25°C° 0.1 mm 4 mps 760 mmHg 86%
    05:00 +25°C° 0.1 mm 4 mps 760 mmHg 87%
    06:00 +25°C° 0.1 mm 4 mps 760 mmHg 88%
    07:00 +26°C° 0.2 mm 5 mps 761 mmHg 86%
    08:00 +27°C° 0.2 mm 5 mps 761 mmHg 83%
    09:00 +27°C° 0.2 mm 6 mps 761 mmHg 80%
    10:00 +27°C° 0.6 mm 6 mps 761 mmHg 80%
    11:00 +28°C° 0.6 mm 6 mps 760 mmHg 81%
    12:00 +28°C° 0.6 mm 6 mps 760 mmHg 81%
    13:00 +27°C° 0.9 mm 6 mps 760 mmHg 83%
    14:00 +27°C° 0.9 mm 5 mps 759 mmHg 85%
    15:00 +26°C° 0.9 mm 5 mps 759 mmHg 87%
    16:00 +26°C° 0.6 mm 5 mps 759 mmHg 89%
    17:00 +25°C° 0.6 mm 4 mps 759 mmHg 91%
    18:00 +25°C° 0.6 mm 4 mps 759 mmHg 93%
    19:00 +25°C° 0.5 mm 4 mps 760 mmHg 94%
    20:00 +25°C° 0.5 mm 4 mps 760 mmHg 94%
    21:00 +25°C° 0.5 mm 3 mps 760 mmHg 94%
    22:00 +25°C° 0.2 mm 3 mps 760 mmHg 95%
    23:00 +24°C° 0.2 mm 2 mps 760 mmHg 95%

    Day after tomorrow, 14 November, Thursday

    Time Temperature Precipitation Wind Pressure Humidity
    00:00 +24°C° 0.2 mm 2 mps 760 mmHg 96%
    01:00 +24°C° 0.1 mm 2 mps 759 mmHg 96%
    02:00 +24°C° 0.1 mm 2 mps 759 mmHg 96%
    03:00 +24°C° 0.1 mm 1 mps 759 mmHg 96%
    04:00 +24°C° 0.3 mm 1 mps 759 mmHg 96%
    05:00 +24°C° 0.3 mm 1 mps 759 mmHg 96%
    06:00 +24°C° 0.3 mm 1 mps 759 mmHg 96%
    07:00 +25°C° 0.8 mm 1 mps 760 mmHg 92%
    08:00 +27°C° 0.8 mm 1 mps 760 mmHg 87%
    09:00 +28°C° 0.8 mm 1 mps 760 mmHg 83%
    10:00 +29°C° 2.2 mm 1 mps 760 mmHg 81%
    11:00 +29°C° 2.2 mm 2 mps 760 mmHg 80%
    12:00 +30°C° 2.2 mm 2 mps 759 mmHg 78%
    13:00 +29°C° 1.6 mm 3 mps 759 mmHg 81%
    14:00 +28°C° 1.6 mm 4 mps 759 mmHg 83%
    15:00 +28°C° 1.6 mm 5 mps 758 mmHg 86%
    16:00 +27°C° 0.5 mm 4 mps 759 mmHg 87%
    17:00 +26°C° 0.5 mm 4 mps 759 mmHg 89%
    18:00 +26°C° 0.5 mm 4 mps 759 mmHg 90%
    19:00 +26°C° 0.2 mm 3 mps 760 mmHg 91%
    20:00 +25°C° 0.2 mm 3 mps 760 mmHg 91%
    21:00 +25°C° 0.2 mm 2 mps 761 mmHg 91%
    22:00 +25°C° 0.2 mm 2 mps 760 mmHg 92%
    23:00 +25°C° 0.2 mm 2 mps 760 mmHg 94%

    15 November, Friday

    Time Temperature Precipitation Wind Pressure Humidity
    00:00 +24°C° 0.2 mm 2 mps 760 mmHg 95%
    01:00 +24°C° 0.4 mm 2 mps 760 mmHg 95%
    02:00 +24°C° 0.4 mm 2 mps 760 mmHg 95%
    03:00 +24°C° 0.4 mm 2 mps 760 mmHg 95%
    04:00 +24°C° 0 mm 3 mps 760 mmHg 95%
    05:00 +24°C° 0 mm 3 mps 760 mmHg 94%
    06:00 +24°C° 0 mm 3 mps 761 mmHg 93%
    07:00 +26°C° 0.1 mm 4 mps 761 mmHg 87%
    08:00 +27°C° 0.1 mm 4 mps 762 mmHg 81%
    09:00 +28°C° 0.1 mm 5 mps 762 mmHg 74%
    10:00 +28°C° 0.4 mm 5 mps 761 mmHg 75%
    11:00 +28°C° 0.4 mm 5 mps 761 mmHg 75%
    12:00 +28°C° 0.4 mm 5 mps 761 mmHg 76%
    13:00 +28°C° 0.1 mm 5 mps 760 mmHg 72%
    14:00 +28°C° 0.1 mm 5 mps 760 mmHg 69%
    15:00 +28°C° 0.1 mm 5 mps 760 mmHg 65%
    16:00 +27°C° 0.1 mm 5 mps 760 mmHg 72%
    17:00 +26°C° 0.1 mm 5 mps 760 mmHg 80%
    18:00 +23°C° 0.1 mm 4 mps 761 mmHg 87%
    19:00 +23°C° 0 mm 4 mps 761 mmHg 86%
    20:00 +23°C° 0 mm 4 mps 762 mmHg 85%
    21:00 +23°C° 0 mm 4 mps 762 mmHg 84%
    22:00 +23°C° 0 mm 4 mps 762 mmHg 84%
    23:00 +22°C° 0 mm 3 mps 762 mmHg 84%

    16 November, Saturday

    Time Temperature Precipitation Wind Pressure Humidity
    00:00 +22°C° 0 mm 3 mps 762 mmHg 85%
    01:00 +22°C° 0.1 mm 3 mps 762 mmHg 83%
    02:00 +22°C° 0.1 mm 3 mps 761 mmHg 82%
    03:00 +24°C° 0.1 mm 3 mps 761 mmHg 80%
    04:00 +22°C° 0 mm 3 mps 761 mmHg 80%
    05:00 +22°C° 0 mm 3 mps 762 mmHg 80%
    06:00 +22°C° 0 mm 3 mps 762 mmHg 79%
    07:00 +24°C° 0 mm 3 mps 762 mmHg 74%
    08:00 +25°C° 0 mm 4 mps 763 mmHg 69%
    09:00 +25°C° 0 mm 4 mps 763 mmHg 64%
    10:00 +26°C° 0 mm 4 mps 762 mmHg 60%
    11:00 +27°C° 0 mm 4 mps 762 mmHg 55%
    12:00 +28°C° 0 mm 4 mps 761 mmHg 50%
    13:00 +27°C° 0 mm 4 mps 761 mmHg 50%
    14:00 +27°C° 0 mm 4 mps 760 mmHg 50%
    15:00 +27°C° 0 mm 3 mps 760 mmHg 50%
    16:00 +25°C° 0 mm 3 mps 760 mmHg 55%
    17:00 +23°C° 0 mm 2 mps 760 mmHg 60%
    18:00 +21°C° 0 mm 2 mps 760 mmHg 65%
    19:00 +20°C° 0 mm 2 mps 761 mmHg 66%
    20:00 +20°C° 0 mm 2 mps 761 mmHg 68%
    21:00 +19°C° 0 mm 2 mps 761 mmHg 69%
    22:00 +20°C° 0 mm 1 mps 761 mmHg 71%
    23:00 +19°C° 0 mm 1 mps 761 mmHg 73%

    17 November, Sunday

    Time Temperature Precipitation Wind Pressure Humidity
    00:00 +19°C° 0 mm 1 mps 761 mmHg 75%
    01:00 +19°C° 0 mm 1 mps 760 mmHg 77%
    02:00 +18°C° 0 mm 1 mps 760 mmHg 79%
    03:00 +16°C° 0 mm 0 mps 760 mmHg 80%
    04:00 +18°C° 0 mm 1 mps 760 mmHg 81%
    05:00 +18°C° 0 mm 1 mps 760 mmHg 81%
    06:00 +18°C° 0 mm 1 mps 760 mmHg 82%
    07:00 +20°C° 0 mm 1 mps 760 mmHg 73%
    08:00 +23°C° 0 mm 1 mps 760 mmHg 65%
    09:00 +23°C° 0 mm 0 mps 761 mmHg 56%
    10:00 +26°C° 0 mm 1 mps 760 mmHg 53%
    11:00 +27°C° 0 mm 1 mps 760 mmHg 49%
    12:00 +28°C° 0 mm 2 mps 759 mmHg 45%
    13:00 +28°C° 0 mm 2 mps 759 mmHg 46%
    14:00 +28°C° 0 mm 3 mps 758 mmHg 48%
    15:00 +27°C° 0 mm 3 mps 758 mmHg 49%
    16:00 +25°C° 0 mm 3 mps 758 mmHg 55%
    17:00 +23°C° 0 mm 2 mps 758 mmHg 61%
    18:00 +21°C° 0 mm 2 mps 758 mmHg 67%
    19:00 +21°C° 0 mm 1 mps 759 mmHg 69%
    20:00 +21°C° 0 mm 1 mps 759 mmHg 70%
    21:00 +20°C° 0 mm 1 mps 759 mmHg 72%
    22:00 +20°C° 0 mm 1 mps 759 mmHg 72%
    23:00 +18°C° 0 mm 0 mps 759 mmHg 73%
    Show more